Weather in Miločer

Montenegro     42°15′53″N   18°53′39″E
temp.,
°C
wind,
m/s
gust,
m/s
humid.,
%
clouds,
%
prec.,
mm/h
press.,
hPa
HPBL,
m
17 may, mon
mon1723:00+14s1179100 0.0 101238
02:00+14e1277100 0.0 101245
05:00+13ene338660 0.1 101083
08:00+15e247697 0.1 1010239
11:00+17se357099 0.0 1011606
14:00+18sse456751 0.0 1010818
17:00+19sse337057 0.0 1009806
20:00+16ne2284100 0.1 100929
18 may, tue
tue1823:00+14nne22925 0.1 101046
02:00+13n2287100 1.6 101026
05:00+13nw228386 0.4 101158
08:00+16ne11760 0.5 1013226
11:00+19wsw12610 0.1 1014951
14:00+19wsw32624 0.3 1014932
17:00+18wsw23580 0.0 1014531
20:00+14se117025 0.0 101416
19 may, wed
wed1923:00+12nne11749 0.0 101625
02:00+12ne117594 0.0 101526
05:00+10ne237885 0.0 101544
08:00+15ene226831 0.0 1014192
11:00+19ssw34555 0.0 10141084
14:00+19ssw336112 0.0 1014988
17:00+17sw3372100 0.0 1014524
20:00+13wsw118442 0.0 101455
20 may, thu
thu2023:00+12nw2389100 0.1 1014112
02:00+12nw118784 0.4 101377
05:00+11ne2290100 0.5 101273
08:00+11ne2393100 3.3 1012150
11:00+10nne4692100 19.5 1014542
14:00+11ne3779100 24.6 1014902
17:00+12ne2576100 0.1 1013420
20:00+12nw227597 0.2 101486
21 may, fri
fri2123:00+9nne33795 0.0 101553
02:00+9nne48756 0.0 1015138
05:00+10nne4116739 0.0 1016379
08:00+12nne386566 0.0 1016753
11:00+16ne710524 0.0 10171542
14:00+18ne574923 0.0 10171453
17:00+17ne57554 0.0 10161378
20:00+13n33680 0.0 101763